Miscellaneous Local Product
Issued by NWS Hastings, NE

Home | Current Version | Previous Version | Text Only | Print | Product List | Glossary Off
Versions: 1 2 3 4 5 6 7 8 9 10 11 12 13 14 15 16 17 18 19 20 21 22 23 24 25 26 27 28 29 30 31 32 33 34 35 36 37 38 39 40 41 42 43 44 45 46 47 48 49 50

429
AXUS43 KGID 231802
MISGRI

GID CWA HOURLY WEATHER ROUNDUP
NATIONAL WEATHER SERVICE HASTINGS NE
100 PM CDT FRI SEP 23 2016

NOTE: "FAIR" INDICATES FEW OR NO CLOUDS BELOW 12,000 FEET WITH NO
SIGNIFICANT WEATHER AND/OR OBSTRUCTIONS TO VISIBILITY.

...SOUTH CENTRAL NEBRASKA...

CITY           SKY/WX    TMP DP  RH WIND       PRES   REMARKS
GRAND ISLAND   SUNNY     86  61  42 S17G24    29.93F
HASTINGS       SUNNY     86  61  42 S16G22    29.94F
KEARNEY        SUNNY     88  57  35 S23G35    29.89F
ORD            SUNNY     87  56  34 S24G33    29.88F
YORK           SUNNY     86  63  45 S14       29.94F
AURORA         SUNNY     84  62  47 S12G18    29.94F
LEXINGTON      SUNNY     87  56  34 S30G36    29.88F
HOLDREGE       SUNNY     86  53  32 S17G29    29.91S
HEBRON         SUNNY     87  61  41 S15G22    29.95F

...NEBRASKA PANHANDLE...

CITY           SKY/WX    TMP DP  RH WIND       PRES   REMARKS
CHADRON        CLOUDY    61  57  87 NW8       29.82F
ALLIANCE       PTSUNNY   78  57  48 SE14      29.80S
SCOTTSBLUFF    SUNNY     74  58  57 NW5       29.81F
SIDNEY         SUNNY     84  55  36 SE18      29.81F

...WESTERN AND NORTH CENTRAL NEBRASKA...

CITY           SKY/WX    TMP DP  RH WIND       PRES   REMARKS
VALENTINE      SUNNY     82  62  50 S17       29.81F
AINSWORTH      SUNNY     85  63  47 S20G26    29.83F
ONEILL         SUNNY     87  57  36 S21G28    29.88S
BROKEN BOW     SUNNY     86  58  38 S18G39    29.88F
IMPERIAL       MOSUNNY   84  55  36 S22G37    29.82F HAZE
NORTH PLATTE   SUNNY     90  57  32 S23G36    29.82F
MCCOOK         SUNNY     86  58  38 S20G37    29.85F

...EASTERN NEBRASKA...

CITY           SKY/WX    TMP DP  RH WIND       PRES   REMARKS
NORFOLK        SUNNY     87  63  44 S17G24    29.92F
SO SIOUX CITY  SUNNY     87  67  51 SE17G24   29.94F HX  90
TEKAMAH        SUNNY     88  63  43 SE17      29.95F
COLUMBUS       SUNNY     88  63  42 S16       29.93F
ALBION         SUNNY     84  61  45 S21G26    29.92S
OMAHA EPPLEY   MOSUNNY   87  65  47 SE15      29.97F
OFFUTT AFB     SUNNY     86  67  52 SE13      29.97F
MILLARD        SUNNY     87  63  44 S12G18    29.96F
LINCOLN        SUNNY     89  62  40 S15G23    29.95F
NEBRASKA CITY  SUNNY     86  49  27 S14       29.99F
BEATRICE       SUNNY     87  63  44 S15G21    29.97F
FALLS CITY     SUNNY     86  65  49 S10       29.99F

...NORTHERN KANSAS...

CITY           SKY/WX    TMP DP  RH WIND       PRES   REMARKS
GOODLAND       SUNNY     83  56  39 S28G38    29.85F
HILL CITY      SUNNY     87  57  35 S24G33    29.89F
NORTON         CLEAR     88  52  29 SE15G30   29.88F
PHILLIPSBURG   SUNNY     90  55  31 SE18G28   29.90F
SMITH CENTER   SUNNY     88  59  37 S20       29.92F
HAYS           MOSUNNY   90  55  31 S25G31    29.91F
CONCORDIA      LGT RAIN  88  63  43 S18G25    29.96F
SALINA         SUNNY     89  64  43 S16G24    29.95F HX  90
TOPEKA         SUNNY     87  65  47 S15       30.01F



USA.gov is the U.S. government's official web portal to all federal, state and local government web resources and services.